Home   Weather   Santorini   Past weeks

Flag for Greece Past Weather in Santorini, Greece — Yesterday and Last 2 Weeks

Now
77 °F

Passing clouds.


Feels Like: 79 °F
Forecast: 71 / 76 °F
Wind: 16 mph from North

Location: Santorini Island

Current Time: Sep 29, 2016 at 2:59:52 PM

Latest Report: Sep 29, 2016 at 2:20 PM


Visibility: N/A

Pressure: 30.18 "Hg

Humidity: 51%

Dew Point: 57 °F

Location of SantoriniLocation

Past Weather in Santorini — Graph

°F

Santorini Temperature Yesterday

Maximum temperature yesterday: 75 °F (at 1:20 PM)
Minimum temperature yesterday: 66 °F (at 7:20 AM)
Average temperature yesterday: 71 °F

High & Low Weather Summary for the Past Weeks

 TemperatureHumidityPressure
High88 °F (Sep 18, 12:20 PM)89% (Sep 18, 2:20 AM)30.24 "Hg (Sep 18, 2:20 AM)
Low66 °F (Sep 28, 7:20 AM)29% (Sep 17, 4:20 PM)29.71 "Hg (Sep 20, 7:20 AM)
Average75 °F60%29.98 "Hg
* Reported Sep 14 12:20 PM — Sep 29 12:50 PM, Santorini, Weather by CustomWeather, © 2016

Note: Actual official high and low records may vary slightly from our data, if they occured in-between our weather recording intervals... More about our weather records

Advertising

Santorini Weather History for the Previous 24 Hours

Scroll right to see more
 ConditionsComfort  
Time TempWeatherWind HumidityBarometerVisibility
12:50 PM
Thu, Sep 29
75 °FPassing clouds.12 mph54%30.21 "HgN/A
12:20 PM75 °FPassing clouds.15 mph50%30.21 "HgN/A
11:50 AM75 °FPassing clouds.15 mph50%30.21 "HgN/A
11:20 AM75 °FPassing clouds.14 mph54%30.21 "HgN/A
10:50 AM73 °FPassing clouds.14 mph57%30.21 "HgN/A
10:20 AM73 °FPassing clouds.13 mph57%30.21 "HgN/A
9:50 AM73 °FPassing clouds.13 mph57%30.21 "HgN/A
9:20 AM72 °FPassing clouds.16 mph57%30.21 "HgN/A
8:50 AM72 °FPassing clouds.9 mph57%30.21 "HgN/A
8:20 AM70 °FPassing clouds.12 mph64%30.21 "HgN/A
7:50 AM68 °FPassing clouds.9 mph69%30.21 "HgN/A
7:20 AM66 °FPassing clouds.6 mph68%30.21 "HgN/A
6:50 AM68 °FPassing clouds.9 mph69%30.21 "HgN/A
6:20 AM68 °FPassing clouds.15 mph69%30.21 "HgN/A
5:50 AM68 °FPassing clouds.15 mph69%30.21 "HgN/A
5:20 AM68 °FPassing clouds.15 mph73%30.21 "HgN/A
4:50 AM68 °FPassing clouds.13 mph73%30.21 "HgN/A
4:20 AM68 °FLight rain. Overcast.13 mph73%30.21 "HgN/A
3:50 AM70 °FLight rain. Overcast.14 mph69%30.21 "HgN/A
3:20 AM68 °FLight rain. Overcast.17 mph73%30.21 "HgN/A
2:50 AM70 °FLight rain. Overcast.16 mph69%30.21 "HgN/A
2:20 AM70 °FLight rain. Overcast.17 mph69%30.21 "HgN/A
1:50 AM68 °FLight rain. Overcast.12 mph73%30.21 "HgN/A
1:20 AM68 °FLight rain. Overcast.13 mph69%30.24 "HgN/A
12:50 AM70 °FPassing clouds.13 mph69%30.24 "HgN/A
12:20 AM70 °FPassing clouds.14 mph69%30.21 "HgN/A
11:50 PM
Wed, Sep 28
70 °FPassing clouds.16 mph69%30.24 "HgN/A
11:20 PM70 °FPassing clouds.16 mph69%30.24 "HgN/A
10:50 PM70 °FPassing clouds.18 mph69%30.24 "HgN/A
10:20 PM70 °FPassing clouds.17 mph69%30.24 "HgN/A
9:50 PM70 °FPassing clouds.17 mph69%30.24 "HgN/A
9:20 PM70 °FPassing clouds.16 mph69%30.24 "HgN/A
8:50 PM70 °FPassing clouds.16 mph69%30.24 "HgN/A
8:20 PM70 °FPassing clouds.17 mph69%30.21 "HgN/A
7:50 PM70 °FPassing clouds.16 mph69%30.21 "HgN/A
7:20 PM70 °FPassing clouds.17 mph64%30.21 "HgN/A
6:50 PM70 °FPassing clouds.17 mph64%30.21 "HgN/A
6:20 PM72 °FPassing clouds.17 mph61%30.21 "HgN/A
5:50 PM72 °FPassing clouds.22 mph61%30.21 "HgN/A
5:20 PM73 °FPassing clouds.21 mph57%30.21 "HgN/A
4:50 PM73 °FPassing clouds.21 mph57%30.21 "HgN/A
4:20 PM73 °FPassing clouds.17 mph57%30.21 "HgN/A
3:50 PM73 °FPassing clouds.17 mph57%30.21 "HgN/A
3:20 PM73 °FPassing clouds.17 mph57%30.21 "HgN/A
2:50 PM73 °FPassing clouds.20 mph57%30.21 "HgN/A
2:20 PM73 °FPassing clouds.17 mph57%30.21 "HgN/A
Weather by CustomWeather, © 2016

See weather overviewHow to use our weather pages